Time,TemperatureF,DewpointF,PressureIn,WindDirection,WindDirectionDegrees,WindSpeedMPH,WindSpeedGustMPH,Humidity,HourlyPrecipIn,Conditions,Clouds,dailyrainin,SoftwareType,DateUTC
2013-04-12 00:00:00,42.8,38.0,29.98,ENE,68,1.1,4.0,83,0.00,,,0.00,WUHU216HW,2013-04-12 04:00:00,
2013-04-12 00:01:00,42.8,38.0,29.98,NW,315,1.1,4.0,83,0.00,,,0.00,WUHU216HW,2013-04-12 04:01:00,
2013-04-12 00:07:00,42.8,38.0,29.97,SSE,158,1.8,4.0,83,0.00,,,0.00,WUHU216HW,2013-04-12 04:07:00,
2013-04-12 00:12:00,42.6,37.8,29.97,NE,45,1.1,4.9,83,0.00,,,0.00,WUHU216HW,2013-04-12 04:12:00,
2013-04-12 00:17:00,42.5,37.7,29.97,ENE,68,0.9,4.9,83,0.00,,,0.00,WUHU216HW,2013-04-12 04:17:00,
2013-04-12 00:22:00,42.5,37.4,29.96,East,90,1.1,5.4,82,0.00,,,0.00,WUHU216HW,2013-04-12 04:22:00,
2013-04-12 00:27:00,42.3,37.5,29.96,East,90,2.5,5.4,83,0.00,,,0.00,WUHU216HW,2013-04-12 04:27:00,
2013-04-12 00:32:00,42.3,37.5,29.96,SE,135,2.5,6.5,83,0.00,,,0.00,WUHU216HW,2013-04-12 04:32:00,
2013-04-12 00:37:00,42.3,37.5,29.96,NNW,338,1.8,6.5,83,0.00,,,0.00,WUHU216HW,2013-04-12 04:37:00,
2013-04-12 00:42:00,42.3,37.2,29.95,ENE,68,1.3,4.7,82,0.00,,,0.00,WUHU216HW,2013-04-12 04:42:00,
2013-04-12 00:47:00,42.1,37.0,29.96,SE,135,0.4,4.7,82,0.00,,,0.00,WUHU216HW,2013-04-12 04:47:00,
2013-04-12 00:52:00,42.1,37.0,29.96,SSE,158,2.9,3.1,82,0.00,,,0.00,WUHU216HW,2013-04-12 04:52:00,
2013-04-12 00:57:00,41.9,36.8,29.96,SE,135,4.3,5.4,82,0.00,,,0.00,WUHU216HW,2013-04-12 04:57:00,
2013-04-12 01:02:00,41.9,36.8,29.96,East,90,0.9,6.5,82,0.00,,,0.00,WUHU216HW,2013-04-12 05:02:00,
2013-04-12 01:07:00,41.7,36.6,29.96,ESE,113,2.7,6.5,82,0.00,,,0.00,WUHU216HW,2013-04-12 05:07:00,
2013-04-12 01:13:00,41.7,36.3,29.96,ENE,68,0.2,5.1,81,0.00,,,0.00,WUHU216HW,2013-04-12 05:13:00,
2013-04-12 01:18:00,41.7,36.3,29.96,South,180,1.1,6.9,81,0.00,,,0.00,WUHU216HW,2013-04-12 05:18:00,
2013-04-12 01:23:00,41.6,36.2,29.96,East,90,1.1,6.9,81,0.00,,,0.00,WUHU216HW,2013-04-12 05:23:00,
2013-04-12 01:28:00,41.6,36.2,29.96,ESE,113,1.8,3.6,81,0.00,,,0.00,WUHU216HW,2013-04-12 05:28:00,
2013-04-12 01:33:00,41.6,36.2,29.95,WNW,293,0.2,4.0,81,0.00,,,0.00,WUHU216HW,2013-04-12 05:33:00,
2013-04-12 01:38:00,41.6,36.2,29.95,SE,135,2.7,4.0,81,0.00,,,0.00,WUHU216HW,2013-04-12 05:38:00,
2013-04-12 01:43:00,41.6,36.2,29.96,West,270,3.1,5.8,81,0.00,,,0.00,WUHU216HW,2013-04-12 05:43:00,
2013-04-12 01:48:00,41.6,36.2,29.96,NE,45,3.4,5.8,81,0.00,,,0.00,WUHU216HW,2013-04-12 05:48:00,
2013-04-12 01:53:00,41.4,35.7,29.96,ENE,68,2.2,4.0,80,0.00,,,0.00,WUHU216HW,2013-04-12 05:53:00,
2013-04-12 01:58:00,41.4,35.7,29.95,SSE,158,3.1,3.6,80,0.00,,,0.00,WUHU216HW,2013-04-12 05:58:00,
2013-04-12 02:03:00,41.4,35.7,29.95,SE,135,2.7,4.0,80,0.00,,,0.00,WUHU216HW,2013-04-12 06:03:00,
2013-04-12 02:08:00,41.4,35.7,29.95,West,270,1.1,4.7,80,0.00,,,0.00,WUHU216HW,2013-04-12 06:08:00,
2013-04-12 02:13:00,41.4,35.4,29.95,ENE,68,3.1,5.4,79,0.00,,,0.00,WUHU216HW,2013-04-12 06:13:00,
2013-04-12 02:18:00,41.4,35.4,29.95,ESE,113,1.6,7.4,79,0.00,,,0.00,WUHU216HW,2013-04-12 06:18:00,
2013-04-12 02:23:00,41.4,35.4,29.94,SSE,158,1.6,7.4,79,0.00,,,0.00,WUHU216HW,2013-04-12 06:23:00,
2013-04-12 02:28:00,41.2,35.2,29.94,East,90,2.0,4.9,79,0.00,,,0.00,WUHU216HW,2013-04-12 06:28:00,
2013-04-12 02:34:00,41.2,34.9,29.94,ESE,113,6.3,6.3,78,0.00,,,0.00,WUHU216HW,2013-04-12 06:34:00,
2013-04-12 02:39:00,41.2,34.9,29.94,SE,135,1.1,6.3,78,0.00,,,0.00,WUHU216HW,2013-04-12 06:39:00,
2013-04-12 02:44:00,41.2,34.9,29.94,South,180,4.0,5.4,78,0.00,,,0.00,WUHU216HW,2013-04-12 06:44:00,
2013-04-12 02:49:00,41.2,34.9,29.94,SSW,203,2.9,6.3,78,0.00,,,0.00,WUHU216HW,2013-04-12 06:49:00,
2013-04-12 02:54:00,41.2,34.9,29.94,SSE,158,2.2,6.3,78,0.00,,,0.00,WUHU216HW,2013-04-12 06:54:00,
2013-04-12 02:59:00,41.2,34.6,29.94,East,90,3.8,5.8,77,0.00,,,0.00,WUHU216HW,2013-04-12 06:59:00,
2013-04-12 03:04:00,41.2,34.6,29.94,East,90,3.1,3.8,77,0.00,,,0.00,WUHU216HW,2013-04-12 07:04:00,
2013-04-12 03:09:00,41.0,34.4,29.94,ESE,113,2.0,4.7,77,0.00,,,0.00,WUHU216HW,2013-04-12 07:09:00,
2013-04-12 03:14:00,41.0,34.4,29.93,SE,135,0.4,4.9,77,0.00,,,0.00,WUHU216HW,2013-04-12 07:14:00,
2013-04-12 03:19:00,41.0,34.4,29.93,NNE,23,2.5,4.9,77,0.00,,,0.00,WUHU216HW,2013-04-12 07:19:00,
2013-04-12 03:24:00,41.0,34.4,29.93,ENE,68,5.1,6.5,77,0.00,,,0.00,WUHU216HW,2013-04-12 07:24:00,
2013-04-12 03:29:00,41.0,34.4,29.93,East,90,3.1,9.4,77,0.00,,,0.00,WUHU216HW,2013-04-12 07:29:00,
2013-04-12 03:34:00,40.8,34.2,29.92,WSW,248,3.4,9.4,77,0.00,,,0.00,WUHU216HW,2013-04-12 07:34:00,
2013-04-12 03:39:00,40.8,34.2,29.93,SE,135,3.4,6.5,77,0.00,,,0.00,WUHU216HW,2013-04-12 07:39:00,
2013-04-12 03:44:00,40.8,34.2,29.93,ENE,68,1.8,9.2,77,0.00,,,0.00,WUHU216HW,2013-04-12 07:44:00,
2013-04-12 03:49:00,40.8,34.2,29.93,NNE,23,1.1,9.2,77,0.00,,,0.00,WUHU216HW,2013-04-12 07:49:00,
2013-04-12 03:55:00,40.7,34.1,29.93,SE,135,1.6,8.1,77,0.00,,,0.00,WUHU216HW,2013-04-12 07:55:00,
2013-04-12 04:00:00,40.7,34.1,29.93,NNW,338,2.0,6.5,77,0.00,,,0.00,WUHU216HW,2013-04-12 08:00:00,
2013-04-12 04:05:00,40.7,34.1,29.92,ENE,68,1.1,6.0,77,0.00,,,0.00,WUHU216HW,2013-04-12 08:05:00,
2013-04-12 04:10:00,40.5,33.9,29.92,SSW,203,2.2,7.4,77,0.00,,,0.00,WUHU216HW,2013-04-12 08:10:00,
2013-04-12 04:15:00,40.5,34.2,29.92,ESE,113,3.4,8.9,78,0.00,,,0.00,WUHU216HW,2013-04-12 08:15:00,
2013-04-12 04:20:00,40.3,34.0,29.91,SE,135,2.5,8.9,78,0.00,,,0.00,WUHU216HW,2013-04-12 08:20:00,
2013-04-12 04:25:00,40.1,33.8,29.91,South,180,1.3,8.3,78,0.00,,,0.00,WUHU216HW,2013-04-12 08:25:00,
2013-04-12 04:30:00,40.1,33.8,29.91,ENE,68,2.0,15.7,78,0.00,,,0.00,WUHU216HW,2013-04-12 08:30:00,
2013-04-12 04:35:00,40.1,33.8,29.91,North,0,3.4,15.7,78,0.00,,,0.00,WUHU216HW,2013-04-12 08:35:00,
2013-04-12 04:40:00,40.1,33.8,29.90,SSE,158,10.1,10.1,78,0.00,,,0.00,WUHU216HW,2013-04-12 08:40:00,
2013-04-12 04:45:00,39.9,33.9,29.91,SE,135,5.8,10.1,79,0.00,,,0.00,WUHU216HW,2013-04-12 08:45:00,
2013-04-12 04:50:00,39.9,33.9,29.92,WSW,248,0.7,10.1,79,0.00,,,0.00,WUHU216HW,2013-04-12 08:50:00,
2013-04-12 04:55:00,39.9,33.9,29.92,SE,135,3.8,6.0,79,0.00,,,0.00,WUHU216HW,2013-04-12 08:55:00,
2013-04-12 05:00:00,39.8,33.8,29.92,SSW,203,2.5,6.3,79,0.00,,,0.00,WUHU216HW,2013-04-12 09:00:00,
2013-04-12 05:06:00,39.8,33.8,29.90,ESE,113,3.4,6.3,79,0.00,,,0.00,WUHU216HW,2013-04-12 09:06:00,
2013-04-12 05:11:00,39.8,33.8,29.90,South,180,2.7,10.5,79,0.00,,,0.00,WUHU216HW,2013-04-12 09:11:00,
2013-04-12 05:16:00,39.8,33.8,29.89,South,180,3.4,10.5,79,0.00,,,0.00,WUHU216HW,2013-04-12 09:16:00,
2013-04-12 05:21:00,39.6,34.0,29.89,East,90,3.1,4.7,80,0.00,,,0.00,WUHU216HW,2013-04-12 09:21:00,
2013-04-12 05:26:00,39.6,34.0,29.89,ESE,113,4.9,5.1,80,0.00,,,0.00,WUHU216HW,2013-04-12 09:26:00,
2013-04-12 05:31:00,39.4,33.8,29.89,NE,45,2.9,6.9,80,0.00,,,0.00,WUHU216HW,2013-04-12 09:31:00,
2013-04-12 05:36:00,39.4,33.8,29.89,SSE,158,2.2,6.9,80,0.00,,,0.00,WUHU216HW,2013-04-12 09:36:00,
2013-04-12 05:41:00,39.4,34.1,29.88,ESE,113,2.5,8.9,81,0.00,,,0.00,WUHU216HW,2013-04-12 09:41:00,
2013-04-12 05:47:00,39.4,34.1,29.88,WNW,293,2.5,8.9,81,0.00,,,0.00,WUHU216HW,2013-04-12 09:47:00,
2013-04-12 05:52:00,39.2,33.9,29.88,SW,225,1.8,10.5,81,0.00,,,0.00,WUHU216HW,2013-04-12 09:52:00,
2013-04-12 05:57:00,39.0,33.7,29.88,NNE,23,2.2,10.5,81,0.00,,,0.00,WUHU216HW,2013-04-12 09:57:00,
2013-04-12 06:02:00,39.0,33.7,29.88,WSW,248,3.8,9.8,81,0.00,,,0.00,WUHU216HW,2013-04-12 10:02:00,
2013-04-12 06:07:00,39.0,33.7,29.88,East,90,3.6,9.8,81,0.00,,,0.00,WUHU216HW,2013-04-12 10:07:00,
2013-04-12 06:12:00,38.9,33.9,29.88,NNW,338,2.9,7.4,82,0.00,,,0.00,WUHU216HW,2013-04-12 10:12:00,
2013-04-12 06:17:00,38.9,33.9,29.88,South,180,1.8,7.4,82,0.00,,,0.00,WUHU216HW,2013-04-12 10:17:00,
2013-04-12 06:22:00,38.7,33.7,29.87,ENE,68,4.7,6.9,82,0.00,,,0.00,WUHU216HW,2013-04-12 10:22:00,
2013-04-12 06:27:00,38.7,33.7,29.87,SW,225,2.5,6.3,82,0.00,,,0.00,WUHU216HW,2013-04-12 10:27:00,
2013-04-12 06:32:00,38.7,33.7,29.87,NE,45,4.9,6.3,82,0.00,,,0.00,WUHU216HW,2013-04-12 10:32:00,
2013-04-12 06:38:00,38.7,34.0,29.87,South,180,2.9,6.3,83,0.00,,,0.00,WUHU216HW,2013-04-12 10:38:00,
2013-04-12 06:43:00,38.7,34.0,29.87,SE,135,4.9,7.4,83,0.00,,,0.00,WUHU216HW,2013-04-12 10:43:00,
2013-04-12 06:48:00,38.5,33.8,29.86,SE,135,3.8,9.8,83,0.00,,,0.00,WUHU216HW,2013-04-12 10:48:00,
2013-04-12 06:53:00,38.3,33.3,29.86,SSE,158,2.5,9.8,82,0.00,,,0.00,WUHU216HW,2013-04-12 10:53:00,
2013-04-12 06:58:00,38.1,33.1,29.85,East,90,7.6,9.2,82,0.00,,,0.00,WUHU216HW,2013-04-12 10:58:00,
2013-04-12 07:03:00,38.0,33.0,29.84,East,90,3.8,9.2,82,0.00,,,0.00,WUHU216HW,2013-04-12 11:03:00,
2013-04-12 07:08:00,38.0,33.0,29.84,SSW,203,2.0,7.4,82,0.00,,,0.00,WUHU216HW,2013-04-12 11:08:00,
2013-04-12 07:13:00,37.8,32.8,29.84,East,90,3.4,7.4,82,0.00,,,0.00,WUHU216HW,2013-04-12 11:13:00,
2013-04-12 07:18:00,37.6,32.9,29.84,SE,135,1.8,9.4,83,0.00,,,0.00,WUHU216HW,2013-04-12 11:18:00,
2013-04-12 07:23:00,37.6,32.9,29.84,SE,135,1.6,9.4,83,0.00,,,0.00,WUHU216HW,2013-04-12 11:23:00,
2013-04-12 07:28:00,37.6,32.9,29.84,NE,45,1.6,9.2,83,0.00,,,0.00,WUHU216HW,2013-04-12 11:28:00,
2013-04-12 07:33:00,37.4,32.7,29.84,ENE,68,6.3,9.8,83,0.00,,,0.00,WUHU216HW,2013-04-12 11:33:00,
2013-04-12 07:38:00,37.4,32.7,29.83,East,90,6.9,9.8,83,0.00,,,0.00,WUHU216HW,2013-04-12 11:38:00,
2013-04-12 07:43:00,37.2,32.8,29.83,NE,45,3.4,7.6,84,0.00,,,0.00,WUHU216HW,2013-04-12 11:43:00,
2013-04-12 07:48:00,37.2,32.8,29.83,East,90,3.4,7.6,84,0.00,,,0.00,WUHU216HW,2013-04-12 11:48:00,
2013-04-12 07:54:00,37.2,32.8,29.83,SSW,203,1.8,6.7,84,0.00,,,0.00,WUHU216HW,2013-04-12 11:54:00,
2013-04-12 07:59:00,37.2,32.8,29.83,East,90,1.1,6.0,84,0.00,,,0.00,WUHU216HW,2013-04-12 11:59:00,
2013-04-12 08:04:00,37.1,32.7,29.84,SSE,158,1.8,10.7,84,0.00,,,0.00,WUHU216HW,2013-04-12 12:04:00,
2013-04-12 08:09:00,36.9,32.5,29.84,ESE,113,4.9,10.7,84,0.00,,,0.00,WUHU216HW,2013-04-12 12:09:00,
2013-04-12 08:14:00,36.9,32.5,29.85,SE,135,1.6,10.5,84,0.00,,,0.00,WUHU216HW,2013-04-12 12:14:00,
2013-04-12 08:19:00,36.9,32.5,29.85,SSE,158,5.1,7.8,84,0.00,,,0.00,WUHU216HW,2013-04-12 12:19:00,
2013-04-12 08:24:00,36.9,32.5,29.84,East,90,3.4,7.2,84,0.00,,,0.00,WUHU216HW,2013-04-12 12:24:00,
2013-04-12 08:29:00,36.9,32.5,29.84,South,180,4.7,7.6,84,0.00,,,0.00,WUHU216HW,2013-04-12 12:29:00,
2013-04-12 08:34:00,36.9,32.5,29.83,ENE,68,5.1,7.6,84,0.00,,,0.00,WUHU216HW,2013-04-12 12:34:00,
2013-04-12 08:39:00,36.7,32.3,29.83,North,0,0.9,6.7,84,0.00,,,0.00,WUHU216HW,2013-04-12 12:39:00,
2013-04-12 08:44:00,36.7,32.3,29.83,SE,135,4.0,6.9,84,0.00,,,0.00,WUHU216HW,2013-04-12 12:44:00,
2013-04-12 08:49:00,36.7,32.3,29.83,ESE,113,3.6,6.9,84,0.00,,,0.00,WUHU216HW,2013-04-12 12:49:00,
2013-04-12 08:54:00,36.7,32.3,29.83,SSE,158,1.1,7.6,84,0.00,,,0.00,WUHU216HW,2013-04-12 12:54:00,
2013-04-12 09:00:00,36.7,32.3,29.82,SSE,158,4.0,9.2,84,0.00,,,0.00,WUHU216HW,2013-04-12 13:00:00,
2013-04-12 09:05:00,36.7,32.3,29.81,ENE,68,2.0,9.2,84,0.00,,,0.00,WUHU216HW,2013-04-12 13:05:00,
2013-04-12 09:10:00,36.5,32.1,29.81,SE,135,5.1,6.3,84,0.00,,,0.00,WUHU216HW,2013-04-12 13:10:00,
2013-04-12 09:15:00,36.5,32.4,29.81,North,0,3.4,6.5,85,0.00,,,0.00,WUHU216HW,2013-04-12 13:15:00,
2013-04-12 09:20:00,36.5,32.4,29.82,ESE,113,3.4,8.5,85,0.00,,,0.00,WUHU216HW,2013-04-12 13:20:00,
2013-04-12 09:25:00,36.5,32.4,29.83,SSE,158,6.0,8.5,85,0.00,,,0.00,WUHU216HW,2013-04-12 13:25:00,
2013-04-12 09:30:00,36.5,32.4,29.82,WSW,248,4.7,6.9,85,0.00,,,0.00,WUHU216HW,2013-04-12 13:30:00,
2013-04-12 09:35:00,36.5,32.4,29.82,SE,135,5.1,6.7,85,0.00,,,0.00,WUHU216HW,2013-04-12 13:35:00,
2013-04-12 09:40:00,36.3,32.2,29.83,ESE,113,1.8,10.5,85,0.00,,,0.00,WUHU216HW,2013-04-12 13:40:00,
2013-04-12 09:45:00,36.3,32.2,29.83,ENE,68,1.8,10.5,85,0.00,,,0.00,WUHU216HW,2013-04-12 13:45:00,
2013-04-12 09:50:00,36.3,32.2,29.83,NNW,338,0.9,9.4,85,0.00,,,0.00,WUHU216HW,2013-04-12 13:50:00,
2013-04-12 09:55:00,36.3,32.2,29.82,ESE,113,4.0,9.4,85,0.00,,,0.00,WUHU216HW,2013-04-12 13:55:00,
2013-04-12 10:00:00,36.3,32.2,29.82,East,90,4.0,6.5,85,0.00,,,0.00,WUHU216HW,2013-04-12 14:00:00,
2013-04-12 10:05:00,36.3,32.2,29.81,SSE,158,2.5,6.5,85,0.00,,,0.00,WUHU216HW,2013-04-12 14:05:00,
2013-04-12 10:10:00,36.3,32.2,29.79,SE,135,2.0,8.5,85,0.00,,,0.00,WUHU216HW,2013-04-12 14:10:00,
2013-04-12 10:16:00,36.3,32.2,29.78,SSW,203,7.2,8.5,85,0.00,,,0.00,WUHU216HW,2013-04-12 14:16:00,
2013-04-12 10:21:00,36.2,32.1,29.77,ESE,113,5.6,9.8,85,0.00,,,0.00,WUHU216HW,2013-04-12 14:21:00,
2013-04-12 10:25:00,36.2,32.4,29.78,WSW,248,1.8,9.8,86,0.00,,,0.00,WUHU216HW,2013-04-12 14:25:00,
2013-04-12 10:31:00,36.2,32.4,29.79,SSE,158,7.2,7.2,86,0.00,,,0.00,WUHU216HW,2013-04-12 14:31:00,
2013-04-12 10:36:00,36.5,32.7,29.80,South,180,4.7,7.2,86,0.00,,,0.00,WUHU216HW,2013-04-12 14:36:00,
2013-04-12 10:41:00,36.3,32.5,29.80,ENE,68,3.1,7.8,86,0.00,,,0.00,WUHU216HW,2013-04-12 14:41:00,
2013-04-12 10:46:00,36.3,32.5,29.84,ESE,113,6.3,9.4,86,0.00,,,0.00,WUHU216HW,2013-04-12 14:46:00,
2013-04-12 10:51:00,36.5,32.7,29.84,NW,315,2.5,9.4,86,0.00,,,0.00,WUHU216HW,2013-04-12 14:51:00,
2013-04-12 10:56:00,36.5,32.7,29.84,SE,135,4.3,11.2,86,0.00,,,0.00,WUHU216HW,2013-04-12 14:56:00,
2013-04-12 11:01:00,36.5,32.7,29.84,WSW,248,1.3,11.2,86,0.00,,,0.00,WUHU216HW,2013-04-12 15:01:00,
2013-04-12 11:07:00,36.5,32.7,29.84,NE,45,1.6,8.5,86,0.00,,,0.00,WUHU216HW,2013-04-12 15:07:00,
2013-04-12 11:12:00,36.7,32.9,29.84,SW,225,1.3,3.4,86,0.00,,,0.00,WUHU216HW,2013-04-12 15:12:00,
2013-04-12 11:17:00,36.7,32.9,29.83,NNE,23,4.5,4.5,86,0.00,,,0.00,WUHU216HW,2013-04-12 15:17:00,
2013-04-12 11:22:00,36.7,32.9,29.83,NE,45,0.7,5.1,86,0.00,,,0.00,WUHU216HW,2013-04-12 15:22:00,
2013-04-12 11:27:00,36.7,32.9,29.82,SSE,158,3.8,7.6,86,0.00,,,0.00,WUHU216HW,2013-04-12 15:27:00,
2013-04-12 11:32:00,36.9,33.1,29.81,East,90,5.8,7.6,86,0.00,,,0.00,WUHU216HW,2013-04-12 15:32:00,
2013-04-12 11:37:00,36.9,33.1,29.80,ESE,113,3.8,6.9,86,0.00,,,0.00,WUHU216HW,2013-04-12 15:37:00,
2013-04-12 11:42:00,36.9,33.1,29.80,SSE,158,4.9,5.8,86,0.00,,,0.00,WUHU216HW,2013-04-12 15:42:00,
2013-04-12 11:47:00,36.9,33.1,29.79,NNE,23,4.5,5.6,86,0.00,,,0.00,WUHU216HW,2013-04-12 15:47:00,
2013-04-12 11:52:00,37.1,33.3,29.79,SSW,203,2.7,5.6,86,0.00,,,0.00,WUHU216HW,2013-04-12 15:52:00,
2013-04-12 11:57:00,37.2,33.4,29.78,ESE,113,5.8,8.1,86,0.00,,,0.00,WUHU216HW,2013-04-12 15:57:00,
2013-04-12 12:02:00,37.2,33.4,29.78,SSE,158,4.0,8.5,86,0.00,,,0.00,WUHU216HW,2013-04-12 16:02:00,
2013-04-12 12:08:00,37.4,33.6,29.79,SE,135,9.8,9.8,86,0.00,,,0.00,WUHU216HW,2013-04-12 16:08:00,
2013-04-12 12:13:00,37.4,33.9,29.78,NNW,338,3.1,9.8,87,0.00,,,0.00,WUHU216HW,2013-04-12 16:13:00,
2013-04-12 12:18:00,37.8,34.2,29.78,NE,45,6.9,9.8,87,0.00,,,0.00,WUHU216HW,2013-04-12 16:18:00,
2013-04-12 12:23:00,38.0,34.2,29.78,SE,135,4.0,6.9,86,0.00,,,0.00,WUHU216HW,2013-04-12 16:23:00,
2013-04-12 12:28:00,38.0,34.4,29.77,NE,45,4.5,4.9,87,0.00,,,0.00,WUHU216HW,2013-04-12 16:28:00,
2013-04-12 12:33:00,38.0,34.2,29.78,NW,315,2.5,5.4,86,0.00,,,0.00,WUHU216HW,2013-04-12 16:33:00,
2013-04-12 12:38:00,38.0,34.2,29.78,ESE,113,2.5,5.4,86,0.00,,,0.00,WUHU216HW,2013-04-12 16:38:00,
2013-04-12 12:43:00,38.0,34.2,29.78,North,0,5.1,5.1,86,0.00,,,0.00,WUHU216HW,2013-04-12 16:43:00,
2013-04-12 12:48:00,38.0,34.2,29.78,SW,225,0.9,5.1,86,0.00,,,0.00,WUHU216HW,2013-04-12 16:48:00,
2013-04-12 12:53:00,38.1,34.3,29.77,SSE,158,4.7,4.7,86,0.00,,,0.00,WUHU216HW,2013-04-12 16:53:00,
2013-04-12 12:59:00,38.1,34.3,29.77,NW,315,1.8,4.7,86,0.00,,,0.00,WUHU216HW,2013-04-12 16:59:00,
2013-04-12 13:04:00,38.0,34.2,29.77,NW,315,0.9,8.5,86,0.00,,,0.00,WUHU216HW,2013-04-12 17:04:00,
2013-04-12 13:09:00,38.1,34.3,29.77,SSE,158,1.8,8.5,86,0.00,,,0.00,WUHU216HW,2013-04-12 17:09:00,
2013-04-12 13:14:00,38.0,34.2,29.77,SSE,158,1.8,2.9,86,0.00,,,0.00,WUHU216HW,2013-04-12 17:14:00,
2013-04-12 13:19:00,38.0,34.2,29.77,SE,135,2.7,5.6,86,0.00,,,0.00,WUHU216HW,2013-04-12 17:19:00,
2013-04-12 13:24:00,38.0,34.2,29.76,ENE,68,1.8,5.6,86,0.00,,,0.00,WUHU216HW,2013-04-12 17:24:00,
2013-04-12 13:29:00,38.0,34.2,29.76,East,90,2.2,5.1,86,0.00,,,0.00,WUHU216HW,2013-04-12 17:29:00,
2013-04-12 13:34:00,38.0,34.2,29.76,SSE,158,1.3,6.3,86,0.00,,,0.00,WUHU216HW,2013-04-12 17:34:00,
2013-04-12 13:39:00,38.0,34.2,29.76,East,90,2.5,6.3,86,0.00,,,0.00,WUHU216HW,2013-04-12 17:39:00,
2013-04-12 13:44:00,38.0,34.2,29.76,NW,315,1.6,6.0,86,0.00,,,0.00,WUHU216HW,2013-04-12 17:44:00,
2013-04-12 13:49:00,38.0,34.2,29.76,NNE,23,2.5,6.0,86,0.00,,,0.00,WUHU216HW,2013-04-12 17:49:00,
2013-04-12 13:54:00,38.0,34.2,29.76,SSE,158,4.7,4.7,86,0.00,,,0.00,WUHU216HW,2013-04-12 17:54:00,
2013-04-12 13:59:00,38.0,34.4,29.76,SSW,203,1.1,4.7,87,0.00,,,0.00,WUHU216HW,2013-04-12 17:59:00,
2013-04-12 14:05:00,38.0,34.4,29.75,SE,135,4.7,4.7,87,0.00,,,0.00,WUHU216HW,2013-04-12 18:05:00,
2013-04-12 14:10:00,38.0,34.4,29.75,SSE,158,7.2,7.2,87,0.00,,,0.00,WUHU216HW,2013-04-12 18:10:00,
2013-04-12 14:15:00,38.0,34.4,29.76,East,90,0.9,7.2,87,0.00,,,0.00,WUHU216HW,2013-04-12 18:15:00,
2013-04-12 14:20:00,38.0,34.4,29.75,ENE,68,2.5,7.2,87,0.00,,,0.00,WUHU216HW,2013-04-12 18:20:00,
2013-04-12 14:25:00,38.0,34.4,29.75,NNW,338,0.4,2.7,87,0.00,,,0.00,WUHU216HW,2013-04-12 18:25:00,
2013-04-12 14:29:00,38.0,34.4,29.75,ENE,68,0.7,2.7,87,0.00,,,0.00,WUHU216HW,2013-04-12 18:29:00,
2013-04-12 14:36:00,38.0,34.4,29.75,East,90,1.1,3.4,87,0.00,,,0.00,WUHU216HW,2013-04-12 18:36:00,
2013-04-12 14:42:00,38.0,34.4,29.75,SSE,158,3.8,3.8,87,0.00,,,0.00,WUHU216HW,2013-04-12 18:42:00,
2013-04-12 14:49:00,38.0,34.4,29.74,SSE,158,3.8,6.0,87,0.00,,,0.00,WUHU216HW,2013-04-12 18:49:00,
2013-04-12 14:55:00,38.0,34.4,29.74,East,90,1.8,5.6,87,0.00,,,0.00,WUHU216HW,2013-04-12 18:55:00,
2013-04-12 15:02:00,38.3,34.7,29.74,NW,315,1.1,5.6,87,0.00,,,0.00,WUHU216HW,2013-04-12 19:02:00,
2013-04-12 15:08:00,38.3,34.7,29.74,NE,45,3.4,6.0,87,0.00,,,0.00,WUHU216HW,2013-04-12 19:08:00,
2013-04-12 15:15:00,38.5,34.9,29.73,SSE,158,2.5,6.0,87,0.00,,,0.00,WUHU216HW,2013-04-12 19:15:00,
2013-04-12 15:26:00,38.5,34.9,29.73,ESE,113,1.6,3.8,87,0.00,,,0.00,WUHU216HW,2013-04-12 19:26:00,
2013-04-12 15:27:00,38.5,34.9,29.73,NNE,23,1.1,3.4,87,0.00,,,0.00,WUHU216HW,2013-04-12 19:27:00,
2013-04-12 15:32:00,38.7,35.1,29.73,ENE,68,1.3,3.4,87,0.00,,,0.00,WUHU216HW,2013-04-12 19:32:00,
2013-04-12 15:37:00,38.7,35.1,29.73,East,90,1.3,4.5,87,0.00,,,0.00,WUHU216HW,2013-04-12 19:37:00,
2013-04-12 15:42:00,38.5,34.9,29.73,SE,135,2.0,4.5,87,0.00,,,0.00,WUHU216HW,2013-04-12 19:42:00,
2013-04-12 15:47:00,38.5,34.9,29.73,West,270,8.1,8.1,87,0.00,,,0.00,WUHU216HW,2013-04-12 19:47:00,
2013-04-12 15:52:00,38.5,34.9,29.73,WNW,293,0.2,8.1,87,0.00,,,0.00,WUHU216HW,2013-04-12 19:52:00,
2013-04-12 15:57:00,38.7,35.1,29.72,East,90,1.3,8.1,87,0.00,,,0.00,WUHU216HW,2013-04-12 19:57:00,
2013-04-12 16:02:00,38.7,35.1,29.71,SE,135,2.0,4.0,87,0.00,,,0.00,WUHU216HW,2013-04-12 20:02:00,
2013-04-12 16:07:00,38.7,35.1,29.71,East,90,1.8,3.8,87,0.00,,,0.00,WUHU216HW,2013-04-12 20:07:00,
2013-04-12 16:12:00,38.5,34.9,29.71,ESE,113,2.5,2.9,87,0.00,,,0.00,WUHU216HW,2013-04-12 20:12:00,
2013-04-12 16:17:00,38.5,34.9,29.71,East,90,1.6,2.7,87,0.00,,,0.00,WUHU216HW,2013-04-12 20:17:00,
2013-04-12 16:22:00,38.7,35.1,29.71,NE,45,1.1,2.9,87,0.00,,,0.00,WUHU216HW,2013-04-12 20:22:00,
2013-04-12 16:27:00,38.7,35.1,29.72,West,270,0.9,3.8,87,0.00,,,0.00,WUHU216HW,2013-04-12 20:27:00,
2013-04-12 16:32:00,38.7,35.1,29.71,East,90,3.4,3.8,87,0.00,,,0.00,WUHU216HW,2013-04-12 20:32:00,
2013-04-12 16:38:00,38.7,35.1,29.71,SE,135,0.4,3.4,87,0.00,,,0.00,WUHU216HW,2013-04-12 20:38:00,
2013-04-12 16:43:00,38.7,35.1,29.71,WNW,293,0.4,3.4,87,0.00,,,0.00,WUHU216HW,2013-04-12 20:43:00,
2013-04-12 16:48:00,38.7,35.1,29.71,ENE,68,1.1,3.4,87,0.00,,,0.00,WUHU216HW,2013-04-12 20:48:00,
2013-04-12 16:53:00,38.7,35.1,29.72,East,90,2.5,2.5,87,0.00,,,0.00,WUHU216HW,2013-04-12 20:53:00,
2013-04-12 16:58:00,38.7,35.1,29.72,North,0,0.0,2.5,87,0.00,,,0.00,WUHU216HW,2013-04-12 20:58:00,
2013-04-12 17:03:00,38.7,35.1,29.72,NW,315,1.1,1.8,87,0.00,,,0.00,WUHU216HW,2013-04-12 21:03:00,
2013-04-12 17:08:00,38.7,35.1,29.71,East,90,1.1,1.6,87,0.00,,,0.00,WUHU216HW,2013-04-12 21:08:00,
2013-04-12 17:13:00,38.7,35.1,29.71,WSW,248,1.1,1.6,87,0.00,,,0.00,WUHU216HW,2013-04-12 21:13:00,
2013-04-12 17:18:00,38.7,35.1,29.71,ESE,113,1.6,1.8,87,0.00,,,0.00,WUHU216HW,2013-04-12 21:18:00,
2013-04-12 17:23:00,38.5,34.9,29.72,ESE,113,2.5,3.1,87,0.00,,,0.00,WUHU216HW,2013-04-12 21:23:00,
2013-04-12 17:28:00,38.5,34.9,29.72,SE,135,0.4,3.1,87,0.00,,,0.00,WUHU216HW,2013-04-12 21:28:00,
2013-04-12 17:33:00,38.3,34.7,29.72,SE,135,1.1,3.4,87,0.00,,,0.00,WUHU216HW,2013-04-12 21:33:00,
2013-04-12 17:39:00,38.5,34.9,29.71,SE,135,1.1,3.4,87,0.00,,,0.00,WUHU216HW,2013-04-12 21:39:00,
2013-04-12 17:44:00,38.5,34.9,29.72,NW,315,1.1,3.4,87,0.00,,,0.00,WUHU216HW,2013-04-12 21:44:00,
2013-04-12 17:49:00,38.5,34.9,29.72,SSE,158,1.1,3.4,87,0.00,,,0.00,WUHU216HW,2013-04-12 21:49:00,
2013-04-12 17:54:00,38.5,34.9,29.72,NE,45,2.7,2.7,87,0.00,,,0.00,WUHU216HW,2013-04-12 21:54:00,
2013-04-12 17:59:00,38.5,34.9,29.72,ESE,113,1.8,2.7,87,0.00,,,0.00,WUHU216HW,2013-04-12 21:59:00,
2013-04-12 18:04:00,38.3,34.7,29.72,West,270,0.4,2.7,87,0.00,,,0.00,WUHU216HW,2013-04-12 22:04:00,
2013-04-12 18:09:00,38.3,34.7,29.72,SE,135,0.4,4.7,87,0.00,,,0.00,WUHU216HW,2013-04-12 22:09:00,
2013-04-12 18:14:00,38.3,34.7,29.72,SE,135,0.9,4.7,87,0.00,,,0.00,WUHU216HW,2013-04-12 22:14:00,
2013-04-12 18:19:00,38.3,34.7,29.71,SE,135,0.0,2.0,87,0.00,,,0.00,WUHU216HW,2013-04-12 22:19:00,
2013-04-12 18:24:00,38.3,34.7,29.71,ENE,68,0.9,1.6,87,0.00,,,0.00,WUHU216HW,2013-04-12 22:24:00,
2013-04-12 18:29:00,38.3,34.7,29.71,SE,135,1.1,1.6,87,0.00,,,0.00,WUHU216HW,2013-04-12 22:29:00,
2013-04-12 18:35:00,38.3,34.7,29.71,East,90,0.7,2.2,87,0.00,,,0.00,WUHU216HW,2013-04-12 22:35:00,
2013-04-12 18:40:00,38.1,34.5,29.71,ENE,68,3.4,3.4,87,0.00,,,0.00,WUHU216HW,2013-04-12 22:40:00,
2013-04-12 18:45:00,38.1,34.5,29.71,ENE,68,2.7,3.4,87,0.00,,,0.00,WUHU216HW,2013-04-12 22:45:00,
2013-04-12 18:50:00,38.1,34.5,29.71,WSW,248,0.4,3.4,87,0.00,,,0.00,WUHU216HW,2013-04-12 22:50:00,
2013-04-12 18:55:00,38.1,34.5,29.71,West,270,1.6,2.7,87,0.00,,,0.00,WUHU216HW,2013-04-12 22:55:00,
2013-04-12 19:00:00,38.1,34.5,29.71,SW,225,0.2,1.6,87,0.00,,,0.00,WUHU216HW,2013-04-12 23:00:00,
2013-04-12 19:05:00,38.1,34.5,29.71,SE,135,0.2,2.2,87,0.00,,,0.00,WUHU216HW,2013-04-12 23:05:00,
2013-04-12 19:10:00,38.1,34.5,29.71,NE,45,0.2,2.2,87,0.00,,,0.00,WUHU216HW,2013-04-12 23:10:00,
2013-04-12 19:15:00,38.1,34.5,29.71,ENE,68,0.9,1.8,87,0.00,,,0.00,WUHU216HW,2013-04-12 23:15:00,
2013-04-12 19:20:00,38.1,34.5,29.71,NNE,23,0.7,1.8,87,0.00,,,0.00,WUHU216HW,2013-04-12 23:20:00,
2013-04-12 19:25:00,38.1,34.5,29.71,NW,315,0.7,2.0,87,0.00,,,0.00,WUHU216HW,2013-04-12 23:25:00,
2013-04-12 19:30:00,38.1,34.8,29.71,East,90,0.7,2.0,88,0.00,,,0.00,WUHU216HW,2013-04-12 23:30:00,
2013-04-12 19:35:00,38.1,34.8,29.71,SW,225,0.4,1.3,88,0.00,,,0.00,WUHU216HW,2013-04-12 23:35:00,
2013-04-12 19:40:00,38.3,35.0,29.71,NNW,338,0.7,1.3,88,0.00,,,0.00,WUHU216HW,2013-04-12 23:40:00,
2013-04-12 19:45:00,38.3,35.0,29.71,NNW,338,1.3,3.1,88,0.00,,,0.00,WUHU216HW,2013-04-12 23:45:00,
2013-04-12 19:50:00,38.1,34.8,29.71,NNE,23,0.4,3.1,88,0.00,,,0.00,WUHU216HW,2013-04-12 23:50:00,
2013-04-12 19:55:00,38.1,34.8,29.71,SW,225,0.0,2.0,88,0.00,,,0.00,WUHU216HW,2013-04-12 23:55:00,
2013-04-12 20:01:00,38.3,35.0,29.71,West,270,0.7,2.0,88,0.00,,,0.00,WUHU216HW,2013-04-13 00:01:00,
2013-04-12 20:06:00,38.1,34.8,29.71,West,270,0.9,1.8,88,0.00,,,0.00,WUHU216HW,2013-04-13 00:06:00,
2013-04-12 20:11:00,38.1,34.8,29.71,WNW,293,1.1,1.8,88,0.00,,,0.00,WUHU216HW,2013-04-13 00:11:00,
2013-04-12 20:16:00,38.1,34.8,29.71,NNW,338,1.1,1.8,88,0.00,,,0.00,WUHU216HW,2013-04-13 00:16:00,
2013-04-12 20:21:00,38.3,35.0,29.71,NNW,338,1.8,1.8,88,0.00,,,0.00,WUHU216HW,2013-04-13 00:21:00,
2013-04-12 20:26:00,38.3,35.0,29.71,WNW,293,0.4,2.2,88,0.00,,,0.00,WUHU216HW,2013-04-13 00:26:00,
2013-04-12 20:31:00,38.3,35.0,29.71,North,0,3.4,3.4,88,0.00,,,0.00,WUHU216HW,2013-04-13 00:31:00,
2013-04-12 20:36:00,38.3,35.0,29.71,WSW,248,1.8,3.4,88,0.00,,,0.00,WUHU216HW,2013-04-13 00:36:00,
2013-04-12 20:42:00,38.1,34.8,29.71,SE,135,0.4,2.5,88,0.00,,,0.00,WUHU216HW,2013-04-13 00:42:00,
2013-04-12 20:47:00,38.1,34.8,29.71,North,0,0.4,1.8,88,0.00,,,0.00,WUHU216HW,2013-04-13 00:47:00,
2013-04-12 20:52:00,38.1,34.8,29.71,NNW,338,0.2,1.1,88,0.00,,,0.00,WUHU216HW,2013-04-13 00:52:00,
2013-04-12 20:57:00,38.3,35.0,29.71,NW,315,1.1,1.6,88,0.00,,,0.00,WUHU216HW,2013-04-13 00:57:00,
2013-04-12 21:02:00,38.3,35.0,29.71,NW,315,0.7,1.8,88,0.00,,,0.00,WUHU216HW,2013-04-13 01:02:00,
2013-04-12 21:07:00,38.3,35.0,29.71,West,270,0.9,2.5,88,0.00,,,0.00,WUHU216HW,2013-04-13 01:07:00,
2013-04-12 21:12:00,38.1,34.8,29.71,WNW,293,0.2,2.5,88,0.00,,,0.00,WUHU216HW,2013-04-13 01:12:00,
2013-04-12 21:17:00,38.3,35.0,29.72,NNW,338,0.4,1.8,88,0.00,,,0.00,WUHU216HW,2013-04-13 01:17:00,
2013-04-12 21:22:00,38.3,35.0,29.71,NNE,23,0.2,1.8,88,0.00,,,0.00,WUHU216HW,2013-04-13 01:22:00,
2013-04-12 21:27:00,38.3,35.0,29.72,North,0,2.2,2.2,88,0.00,,,0.00,WUHU216HW,2013-04-13 01:27:00,
2013-04-12 21:32:00,38.3,35.0,29.72,ENE,68,0.2,3.1,88,0.00,,,0.00,WUHU216HW,2013-04-13 01:32:00,
2013-04-12 21:37:00,38.3,35.0,29.72,NNW,338,1.1,3.1,88,0.00,,,0.00,WUHU216HW,2013-04-13 01:37:00,
2013-04-12 21:42:00,38.3,35.0,29.72,NNE,23,0.4,3.4,88,0.00,,,0.00,WUHU216HW,2013-04-13 01:42:00,
2013-04-12 21:47:00,38.5,35.2,29.73,NNW,338,0.2,3.4,88,0.00,,,0.00,WUHU216HW,2013-04-13 01:47:00,
2013-04-12 21:52:00,38.5,35.2,29.73,SW,225,0.2,2.5,88,0.00,,,0.00,WUHU216HW,2013-04-13 01:52:00,
2013-04-12 21:58:00,38.5,35.2,29.73,North,0,0.9,2.5,88,0.00,,,0.00,WUHU216HW,2013-04-13 01:58:00,
2013-04-12 22:03:00,38.5,35.2,29.73,NW,315,1.1,3.4,88,0.00,,,0.00,WUHU216HW,2013-04-13 02:03:00,
2013-04-12 22:08:00,38.5,35.5,29.74,North,0,0.2,3.4,89,0.00,,,0.00,WUHU216HW,2013-04-13 02:08:00,
2013-04-12 22:13:00,38.7,35.7,29.74,NNW,338,0.2,1.1,89,0.00,,,0.00,WUHU216HW,2013-04-13 02:13:00,
2013-04-12 22:18:00,38.7,35.7,29.73,WNW,293,0.9,2.2,89,0.00,,,0.00,WUHU216HW,2013-04-13 02:18:00,
2013-04-12 22:23:00,38.5,35.2,29.73,NW,315,1.6,3.8,88,0.00,,,0.00,WUHU216HW,2013-04-13 02:23:00,
2013-04-12 22:28:00,38.5,35.2,29.74,West,270,1.6,3.8,88,0.00,,,0.00,WUHU216HW,2013-04-13 02:28:00,
2013-04-12 22:33:00,38.5,35.5,29.73,NNW,338,0.4,2.5,89,0.00,,,0.00,WUHU216HW,2013-04-13 02:33:00,
2013-04-12 22:38:00,38.5,35.2,29.73,North,0,1.8,2.5,88,0.00,,,0.00,WUHU216HW,2013-04-13 02:38:00,
2013-04-12 22:43:00,38.3,35.0,29.71,West,270,0.4,2.5,88,0.00,,,0.00,WUHU216HW,2013-04-13 02:43:00,
2013-04-12 22:49:00,38.3,35.0,29.71,NW,315,2.5,2.5,88,0.00,,,0.00,WUHU216HW,2013-04-13 02:49:00,
2013-04-12 22:54:00,38.1,35.1,29.71,WSW,248,1.1,2.5,89,0.00,,,0.00,WUHU216HW,2013-04-13 02:54:00,
2013-04-12 22:59:00,38.3,35.3,29.72,WNW,293,1.8,2.0,89,0.00,,,0.00,WUHU216HW,2013-04-13 02:59:00,
2013-04-12 23:04:00,38.3,35.3,29.72,NW,315,2.0,2.0,89,0.00,,,0.00,WUHU216HW,2013-04-13 03:04:00,
2013-04-12 23:09:00,38.1,35.1,29.73,NW,315,0.4,2.2,89,0.00,,,0.00,WUHU216HW,2013-04-13 03:09:00,
2013-04-12 23:14:00,38.1,35.1,29.74,NNE,23,1.3,2.2,89,0.00,,,0.00,WUHU216HW,2013-04-13 03:14:00,
2013-04-12 23:19:00,38.1,35.1,29.74,NW,315,0.9,1.3,89,0.00,,,0.00,WUHU216HW,2013-04-13 03:19:00,
2013-04-12 23:24:00,38.1,35.1,29.74,North,0,0.2,1.8,89,0.00,,,0.00,WUHU216HW,2013-04-13 03:24:00,
2013-04-12 23:29:00,38.1,35.1,29.74,West,270,2.5,2.5,89,0.00,,,0.00,WUHU216HW,2013-04-13 03:29:00,
2013-04-12 23:34:00,38.1,34.8,29.75,WNW,293,0.2,2.5,88,0.00,,,0.00,WUHU216HW,2013-04-13 03:34:00,
2013-04-12 23:39:00,38.1,34.8,29.75,West,270,0.2,2.5,88,0.00,,,0.00,WUHU216HW,2013-04-13 03:39:00,
2013-04-12 23:44:00,38.1,35.1,29.75,WNW,293,1.1,1.8,89,0.00,,,0.00,WUHU216HW,2013-04-13 03:44:00,
2013-04-12 23:49:00,38.0,35.0,29.74,North,0,2.9,2.9,89,0.00,,,0.00,WUHU216HW,2013-04-13 03:49:00,
2013-04-12 23:54:00,38.0,34.7,29.74,NNW,338,1.1,2.9,88,0.00,,,0.00,WUHU216HW,2013-04-13 03:54:00,
2013-04-12 23:59:00,38.0,35.0,29.74,NNE,23,0.4,1.6,89,0.00,,,0.00,WUHU216HW,2013-04-13 03:59:00,